Location: Newark
(46.8500°N, 5.1667°E)
Time: 19:10:34
(UTC+00:00)

Envisat - Visible Passes

Search period start: 18 October 2019 00:00
Search period end: 28 October 2019 00:00
Orbit: 764 x 766 km, 98.1° (Epoch: 18 October)

Date Brightness Start Highest point End Pass type
(mag) Time Alt. Az. Time Alt. Az. Time Alt. Az.
18 Oct 5.4 18:46:35 10° SW 18:50:37 24° W 18:54:41 10° NW visible
19 Oct 6.4 05:14:00 10° ENE 05:16:29 13° E 05:18:57 10° ESE visible
19 Oct 4.0 18:08:41 10° S 18:13:35 49° W 18:18:32 10° NNW visible
20 Oct 3.0 17:31:41 10° SSE 17:36:46 81° ENE 17:41:52 10° NNW visible
20 Oct 6.1 19:13:48 10° WSW 19:16:26 14° W 19:19:04 10° NW visible
21 Oct 5.0 18:34:52 10° SSW 18:39:15 29° W 18:43:41 10° NW visible
22 Oct 6.7 05:04:05 10° ENE 05:05:03 10° E 05:06:00 10° E visible
22 Oct 3.6 17:57:16 10° S 18:02:18 61° W 18:07:20 10° NNW visible
23 Oct 3.0 17:20:30 10° SSE 17:25:31 66° ENE 17:30:35 10° N visible
23 Oct 5.8 19:01:40 10° SW 19:05:02 18° W 19:08:24 10° NW visible
24 Oct 6.1 05:27:25 10° NE 05:30:55 18° E 05:34:23 10° SE visible
24 Oct 4.6 18:23:16 10° SSW 18:27:55 36° W 18:32:36 10° NNW visible
25 Oct 3.2 17:45:56 10° S 17:51:00 76° WSW 17:56:07 10° NNW visible
26 Oct 3.1 17:09:22 10° SE 17:14:17 53° ENE 17:19:15 10° N visible
26 Oct 5.5 18:49:45 10° SW 18:53:38 22° W 18:57:32 10° NW visible
27 Oct 6.2 05:16:41 10° NE 05:19:30 15° E 05:22:19 10° ESE visible
27 Oct 4.2 18:11:44 10° S 18:16:34 45° W 18:21:28 10° NNW visible
